Carlisle Airport, United Kingdom

9:07 AM BST on July 28, 2017 (GMT +0100)
Carlisle

Weather History for EGNC - September, 2012

Change the Weather History Date:

Thursday, September 27, 2012

  Actual Average Record
Temperature  
Mean Temperature 52 °F -  
Max Temperature 55 °F 55 °F 66 °F (2011)
Min Temperature 48 °F 46 °F 44 °F (2007)
Degree Days  
Heating Degree Days 14    
Growing Degree Days 2 (Base 50)    
Moisture  
Dew Point 48 °F    
Average Humidity 88    
Maximum Humidity 100    
Minimum Humidity 76    
Precipitation  
Precipitation 0.00 in - - ()
Sea Level Pressure  
Sea Level Pressure 29.70 in    
Wind  
Wind Speed 4 mph ()    
Max Wind Speed 12 mph    
Max Gust Speed -    
Visibility 5.7 miles    
Events      
Averages and records for this station are not official NWS values.
T = Trace of Precipitation, MM = Missing Value Source: Averaged Metar Reports

Daily Weather History Graph

Daily Weather History Graph

Search for Another Location

Airport or City:

Trip Planner

Search our weather history database for the weather conditions in past years. The results will help you decide how hot, cold, wet, or windy it might be!

Date:

Astronomy

Sep. 27, 2012 Rise Set
Actual Time 7:07 AM BST 6:56 PM BST
Civil Twilight 6:31 AM BST 7:32 PM BST
Nautical Twilight 5:48 AM BST 8:15 PM BST
Astronomical Twilight 5:04 AM BST 8:59 PM BST
Moon 5:35 PM BST (9/27) 4:00 AM BST (9/27)
Length of Visible Light 13h 01m
Length of Day
11h 49m
Waxing Gibbous, 93% of the Moon is Illuminated
Sep 27
Waxing Gibbous
Sep 30
Full
Oct 8
Last Quarter
Oct 15
New
Oct 22
First Quarter

Hourly Weather History & Observations

Time (BST) Temp. Dew Point Humidity Pressure Visibility Wind Dir Wind Speed Gust Speed Precip Events Conditions
8:50 AM 48.2 °F 46.4 °F 93% 29.68 in 1.4 mi Calm Calm - N/A   Scattered Clouds
9:20 AM 48.2 °F 48.2 °F 100% 29.68 in 2.8 mi SSE 1.2 mph - N/A   Mostly Cloudy
9:50 AM 48.2 °F 48.2 °F 100% 29.68 in 5.6 mi South 1.2 mph - N/A   Overcast
10:20 AM 50.0 °F 48.2 °F 94% 29.68 in 5.6 mi SSW 2.3 mph - N/A   Overcast
10:50 AM 50.0 °F 48.2 °F 94% 29.68 in 6.2 mi SW 1.2 mph - N/A   Mostly Cloudy
11:20 AM 50.0 °F 50.0 °F 100% 29.68 in 6.2 mi West 1.2 mph - N/A   Mostly Cloudy
11:50 AM 51.8 °F 50.0 °F 94% 29.68 in 6.2 mi WNW 2.3 mph - N/A   Scattered Clouds
12:20 PM 50.0 °F 50.0 °F 100% 29.68 in 6.2 mi WNW 2.3 mph - N/A   Scattered Clouds
12:50 PM 53.6 °F 50.0 °F 88% 29.68 in 6.2 mi West 5.8 mph - N/A   Scattered Clouds
1:20 PM 55.4 °F 50.0 °F 82% 29.68 in 6.2 mi West 9.2 mph - N/A   Scattered Clouds
1:50 PM 53.6 °F 48.2 °F 82% 29.71 in 6.2 mi West 10.4 mph - N/A   Scattered Clouds
2:20 PM 53.6 °F 48.2 °F 82% 29.71 in 6.2 mi West 11.5 mph - N/A   Scattered Clouds
2:50 PM 53.6 °F 46.4 °F 77% 29.71 in 6.2 mi West 10.4 mph - N/A   Scattered Clouds
3:20 PM 53.6 °F 46.4 °F 77% 29.71 in 6.2 mi West 10.4 mph - N/A   Scattered Clouds
3:50 PM 53.6 °F 46.4 °F 77% 29.71 in 6.2 mi WSW 9.2 mph - N/A   Scattered Clouds
4:20 PM 51.8 °F 46.4 °F 82% 29.71 in 6.2 mi West 6.9 mph - N/A   Partly Cloudy
4:50 PM 51.8 °F 44.6 °F 76% 29.71 in 6.2 mi West 5.8 mph - N/A   Partly Cloudy
5:20 PM 51.8 °F 46.4 °F 82% 29.71 in 6.2 mi WSW 5.8 mph - N/A   Partly Cloudy
5:50 PM 50.0 °F 46.4 °F 87% 29.74 in 6.2 mi WSW 5.8 mph - N/A   Partly Cloudy